Location: Palomar Mountain Lodge
(33.3110°N, 116.8495°W)
Time: 08:39:03
(UTC-08:00)

Aureole 3 Rocket - Pass Details

Date: 19 May 2017
Orbit: 399 x 1743 km, 82.5° (Epoch: 23 November)

Event Time Altitude Azimuth Distance (km) Brightness Sun altitude
Exits shadow 21:24:48 13° 175° (S) 3,211 6.3 -18.6°
Maximum altitude 21:32:09 69° 95° (E) 1,162 4.2 -19.8°
Drops below altitude 10° 21:37:54 10° 13° (NNE) 2,508 6.5 -20.6°
Sets 21:39:58 0° 11° (N) 3,280 7.2 -20.9°
